| time (UTC) | temp F | wind direction | speed MPH | gust MPH | rain 1hr in | rain 24hr in | rain mn in | humidity % | barometer mb |
| 20260902101607 | 74 | 225 | 2.0 | 7.0 | 0.00 | 0.00 | 0.00 | 46 | 1020.9 |
| 20260902101107 | 74 | 235 | 3.0 | 6.0 | 0.00 | 0.00 | 0.00 | 45 | 1020.9 |
| 20260902100607 | 74 | 184 | 1.0 | 5.0 | 0.00 | 0.00 | 0.00 | 46 | 1020.9 |
| 20260902100107 | 74 | 156 | 2.0 | 5.0 | 0.00 | 0.00 | 0.00 | 45 | 1020.9 |
| 20260902095610 | 74 | 164 | 0.0 | 5.0 | 0.00 | 0.00 | 0.00 | 47 | 1020.9 |
| 20260902095107 | 74 | 229 | 1.0 | 5.0 | 0.00 | 0.00 | 0.00 | 46 | 1020.9 |
| 20260902094607 | 73 | 252 | 1.0 | 5.0 | 0.00 | 0.00 | 0.00 | 48 | 1020.9 |
| 20260902094113 | 73 | 179 | 2.0 | 4.0 | 0.00 | 0.00 | 0.00 | 47 | 1020.9 |
| 20260902093616 | 72 | 191 | 1.0 | 5.0 | 0.00 | 0.00 | 0.00 | 47 | 1020.9 |
| 20260902093107 | 74 | 162 | 1.0 | 5.0 | 0.00 | 0.00 | 0.00 | 47 | 1020.9 |
| 20260902092613 | 74 | 144 | 1.0 | 3.0 | 0.00 | 0.00 | 0.00 | 48 | 1020.9 |
| 20260902092113 | 71 | 136 | 1.0 | 4.0 | 0.00 | 0.00 | 0.00 | 52 | 1020.9 |
| 20260902091613 | 71 | 162 | 1.0 | 4.0 | 0.00 | 0.00 | 0.00 | 52 | 1021.3 |
| 20260902091107 | 71 | 186 | 2.0 | 4.0 | 0.00 | 0.00 | 0.00 | 51 | 1020.9 |
| 20260902090610 | 71 | 152 | 2.0 | 4.0 | 0.00 | 0.00 | 0.00 | 52 | 1020.9 |
| 20260902090110 | 71 | 0 | 0.0 | 3.0 | 0.00 | 0.00 | 0.00 | 53 | 1021.3 |
| 20260902085608 | 70 | 194 | 1.0 | 5.0 | 0.00 | 0.00 | 0.00 | 54 | 1021.3 |
| 20260902085110 | 69 | 174 | 0.0 | 5.0 | 0.00 | 0.00 | 0.00 | 54 | 1021.3 |
| 20260902084607 | 70 | 109 | 2.0 | 5.0 | 0.00 | 0.00 | 0.00 | 54 | 1021.3 |
| 20260902084107 | 69 | 104 | 1.0 | 3.0 | 0.00 | 0.00 | 0.00 | 55 | 1021.3 |
| 20260902083607 | 68 | 110 | 0.0 | 3.0 | 0.00 | 0.00 | 0.00 | 58 | 1021.3 |
| 20260902083107 | 68 | 158 | 1.0 | 4.0 | 0.00 | 0.00 | 0.00 | 58 | 1021.3 |
| 20260902082607 | 67 | 169 | 1.0 | 6.0 | 0.00 | 0.00 | 0.00 | 59 | 1020.9 |
| 20260902082107 | 67 | 197 | 2.0 | 4.0 | 0.00 | 0.00 | 0.00 | 59 | 1020.9 |
| 20260902081613 | 66 | 158 | 2.0 | 5.0 | 0.00 | 0.00 | 0.00 | 61 | 1021.3 |
| 20260902081116 | 65 | 182 | 1.0 | 4.0 | 0.00 | 0.00 | 0.00 | 62 | 1021.3 |
| 20260902080607 | 65 | 182 | 3.0 | 4.0 | 0.00 | 0.00 | 0.00 | 62 | 1021.3 |
| 20260902080111 | 65 | 192 | 3.0 | 4.0 | 0.00 | 0.00 | 0.00 | 62 | 1021.3 |
| 20260902075610 | 64 | 104 | 1.0 | 9.0 | 0.00 | 0.00 | 0.00 | 63 | 1020.9 |
| 20260902075107 | 64 | 95 | 4.0 | 9.0 | 0.00 | 0.00 | 0.00 | 62 | 1020.9 |
| 20260902074611 | 64 | 183 | 2.0 | 5.0 | 0.00 | 0.00 | 0.00 | 62 | 1020.9 |
| 20260902074116 | 64 | 173 | 1.0 | 4.0 | 0.00 | 0.00 | 0.00 | 63 | 1020.9 |
| 20260902073607 | 64 | 127 | 0.0 | 3.0 | 0.00 | 0.00 | 0.00 | 65 | 1020.9 |
| 20260902073114 | 64 | 107 | 2.0 | 3.0 | 0.00 | 0.00 | 0.00 | 64 | 1020.9 |
| 20260902072607 | 63 | 154 | 1.0 | 3.0 | 0.00 | 0.00 | 0.00 | 65 | 1020.9 |
| 20260902072113 | 62 | 130 | 1.0 | 4.0 | 0.00 | 0.00 | 0.00 | 67 | 1020.9 |
| 20260902071610 | 62 | 173 | 0.0 | 4.0 | 0.00 | 0.00 | 0.00 | 69 | 1020.9 |
| 20260902071110 | 62 | 85 | 1.0 | 4.0 | 0.00 | 0.00 | 0.00 | 69 | 1020.9 |
| 20260902070608 | 62 | 186 | 2.0 | 4.0 | 0.00 | 0.00 | 0.00 | 70 | 1020.9 |
| 20260902070111 | 61 | 149 | 2.0 | 4.0 | 0.00 | 0.00 | 0.00 | 70 | 1020.9 |
| 20260902065607 | 61 | 104 | 1.0 | 2.0 | 0.00 | 0.00 | 0.00 | 72 | 1020.9 |
| 20260902065107 | 60 | 30 | 1.0 | 3.0 | 0.00 | 0.00 | 0.00 | 72 | 1020.9 |
| 20260902064613 | 60 | 292 | 0.0 | 2.0 | 0.00 | 0.00 | 0.00 | 73 | 1020.9 |
| 20260902064107 | 59 | 51 | 1.0 | 3.0 | 0.00 | 0.00 | 0.00 | 72 | 1020.9 |
| 20260902063607 | 59 | 88 | 1.0 | 3.0 | 0.00 | 0.00 | 0.00 | 72 | 1020.9 |
| 20260902063107 | 59 | 90 | 0.0 | 2.0 | 0.00 | 0.00 | 0.00 | 72 | 1020.9 |
| 20260902062607 | 59 | 101 | 0.0 | 2.0 | 0.00 | 0.00 | 0.00 | 71 | 1020.9 |
| 20260902062107 | 59 | 101 | 1.0 | 2.0 | 0.00 | 0.00 | 0.00 | 70 | 1020.9 |
| 20260902061110 | 60 | 116 | 0.0 | 1.0 | 0.00 | 0.00 | 0.00 | 70 | 1020.9 |
| 20260902060607 | 59 | 115 | 0.0 | 2.0 | 0.00 | 0.00 | 0.00 | 72 | 1020.9 |
| 20260902060107 | 58 | 155 | 0.0 | 1.0 | 0.00 | 0.00 | 0.00 | 75 | 1020.9 |
| 20260902055607 | 56 | 62 | 0.0 | 1.0 | 0.00 | 0.00 | 0.00 | 78 | 1020.9 |
| 20260902055110 | 56 | 29 | 0.0 | 2.0 | 0.00 | 0.00 | 0.00 | 79 | 1020.9 |
| 20260902054613 | 55 | 94 | 1.0 | 3.0 | 0.00 | 0.00 | 0.00 | 80 | 1020.9 |
| 20260902054110 | 55 | 97 | 1.0 | 3.0 | 0.00 | 0.00 | 0.00 | 82 | 1020.9 |
| 20260902053607 | 54 | 81 | 1.0 | 2.0 | 0.00 | 0.00 | 0.00 | 83 | 1020.9 |
| 20260902053110 | 53 | 115 | 1.0 | 4.0 | 0.00 | 0.00 | 0.00 | 84 | 1020.9 |
| 20260902052607 | 53 | 71 | 2.0 | 4.0 | 0.00 | 0.00 | 0.00 | 83 | 1020.9 |
| 20260902052108 | 53 | 70 | 1.0 | 3.0 | 0.00 | 0.00 | 0.00 | 85 | 1020.9 |
| 20260902051608 | 53 | 88 | 1.0 | 3.0 | 0.00 | 0.00 | 0.00 | 86 | 1020.9 |
| 20260902051110 | 53 | 111 | 1.0 | 3.0 | 0.00 | 0.00 | 0.00 | 86 | 1020.9 |
| 20260902050607 | 52 | 124 | 1.0 | 3.0 | 0.00 | 0.00 | 0.00 | 86 | 1020.9 |
| 20260902050107 | 52 | 92 | 1.0 | 3.0 | 0.00 | 0.00 | 0.00 | 86 | 1020.9 |
| 20260902045610 | 52 | 109 | 1.0 | 2.0 | 0.00 | 0.00 | 0.00 | 87 | 1020.5 |
| 20260902045110 | 52 | 80 | 0.0 | 2.0 | 0.00 | 0.00 | 0.00 | 87 | 1020.5 |
| 20260902044608 | 52 | 71 | 1.0 | 3.0 | 0.00 | 0.00 | 0.00 | 87 | 1020.5 |
| 20260902044116 | 52 | 59 | 2.0 | 3.0 | 0.00 | 0.00 | 0.00 | 87 | 1020.5 |
| 20260902043613 | 52 | 69 | 1.0 | 3.0 | 0.00 | 0.00 | 0.00 | 87 | 1020.5 |
| 20260902043107 | 52 | 48 | 1.0 | 3.0 | 0.00 | 0.00 | 0.00 | 87 | 1020.5 |
| 20260902042608 | 52 | 65 | 1.0 | 2.0 | 0.00 | 0.00 | 0.00 | 87 | 1020.5 |
| 20260902042107 | 52 | 57 | 0.0 | 3.0 | 0.00 | 0.00 | 0.00 | 86 | 1020.5 |
| 20260902041611 | 52 | 236 | 1.0 | 3.0 | 0.00 | 0.00 | 0.00 | 86 | 1020.5 |
| 20260902041113 | 52 | 249 | 1.0 | 2.0 | 0.00 | 0.00 | 0.00 | 87 | 1020.5 |
| 20260902040610 | 52 | 88 | 0.0 | 3.0 | 0.00 | 0.00 | 0.00 | 87 | 1020.5 |
| 20260902040110 | 52 | 66 | 2.0 | 3.0 | 0.00 | 0.00 | 0.00 | 87 | 1020.5 |
| 20260902035610 | 52 | 7 | 0.0 | 3.0 | 0.00 | 0.00 | 0.00 | 87 | 1020.5 |
| 20260902035107 | 52 | 64 | 2.0 | 3.0 | 0.00 | 0.00 | 0.00 | 87 | 1020.5 |
| 20260902034613 | 53 | 70 | 1.0 | 2.0 | 0.00 | 0.00 | 0.00 | 87 | 1020.5 |
| 20260902034107 | 53 | 87 | 1.0 | 3.0 | 0.00 | 0.00 | 0.00 | 86 | 1020.5 |
| 20260902033607 | 53 | 88 | 1.0 | 3.0 | 0.00 | 0.00 | 0.00 | 86 | 1020.5 |
| 20260902033107 | 53 | 140 | 0.0 | 2.0 | 0.00 | 0.00 | 0.00 | 86 | 1020.5 |
| 20260902032607 | 53 | 92 | 1.0 | 3.0 | 0.00 | 0.00 | 0.00 | 86 | 1020.5 |
| 20260902032108 | 53 | 66 | 1.0 | 3.0 | 0.00 | 0.00 | 0.00 | 86 | 1020.5 |
| 20260902031610 | 53 | 85 | 1.0 | 2.0 | 0.00 | 0.00 | 0.00 | 86 | 1020.5 |
| 20260902031107 | 53 | 109 | 1.0 | 4.0 | 0.00 | 0.00 | 0.00 | 86 | 1020.5 |
| 20260902030607 | 53 | 137 | 0.0 | 2.0 | 0.00 | 0.00 | 0.00 | 86 | 1020.5 |
| 20260902030107 | 53 | 196 | 0.0 | 3.0 | 0.00 | 0.00 | 0.00 | 86 | 1020.5 |
| 20260902025611 | 53 | 45 | 1.0 | 3.0 | 0.00 | 0.00 | 0.00 | 86 | 1020.5 |
| 20260902025111 | 53 | 80 | 2.0 | 3.0 | 0.00 | 0.00 | 0.00 | 86 | 1020.5 |
| 20260902024610 | 53 | 284 | 0.0 | 1.0 | 0.00 | 0.00 | 0.00 | 85 | 1020.5 |
| 20260902024107 | 53 | 157 | 1.0 | 1.0 | 0.00 | 0.00 | 0.00 | 86 | 1020.5 |
| 20260902023610 | 53 | 121 | 0.0 | 1.0 | 0.00 | 0.00 | 0.00 | 85 | 1020.9 |
| 20260902023107 | 53 | 332 | 0.0 | 1.0 | 0.00 | 0.00 | 0.00 | 85 | 1020.9 |
| 20260902022607 | 53 | 49 | 0.0 | 4.0 | 0.00 | 0.00 | 0.00 | 85 | 1020.9 |
| 20260902022113 | 54 | 73 | 3.0 | 4.0 | 0.00 | 0.00 | 0.00 | 85 | 1020.5 |
| 20260902021610 | 54 | 50 | 2.0 | 3.0 | 0.00 | 0.00 | 0.00 | 84 | 1020.5 |
| 20260902021110 | 54 | 159 | 0.0 | 2.0 | 0.00 | 0.00 | 0.00 | 84 | 1020.5 |
| 20260902020607 | 54 | 123 | 1.0 | 2.0 | 0.00 | 0.00 | 0.00 | 84 | 1020.5 |
| 20260902020107 | 54 | 159 | 0.0 | 2.0 | 0.00 | 0.00 | 0.00 | 84 | 1020.5 |
| 20260902015607 | 54 | 167 | 1.0 | 2.0 | 0.00 | 0.00 | 0.00 | 83 | 1020.9 |
| 20260902015107 | 54 | 181 | 1.0 | 3.0 | 0.00 | 0.00 | 0.00 | 83 | 1020.9 |
| 20260902014613 | 55 | 166 | 2.0 | 3.0 | 0.00 | 0.00 | 0.00 | 83 | 1020.9 |
| 20260902014114 | 55 | 161 | 0.0 | 3.0 | 0.00 | 0.00 | 0.00 | 83 | 1020.9 |
| 20260902013607 | 55 | 172 | 1.0 | 2.0 | 0.00 | 0.00 | 0.00 | 83 | 1020.9 |
| 20260902013110 | 55 | 164 | 1.0 | 2.0 | 0.00 | 0.00 | 0.00 | 83 | 1020.9 |
| 20260902012607 | 55 | 119 | 0.0 | 2.0 | 0.00 | 0.00 | 0.00 | 83 | 1020.9 |
| 20260902012107 | 55 | 132 | 1.0 | 3.0 | 0.00 | 0.00 | 0.00 | 83 | 1020.9 |
| 20260902011607 | 55 | 158 | 1.0 | 3.0 | 0.00 | 0.00 | 0.00 | 83 | 1020.9 |
| 20260902011110 | 55 | 182 | 0.0 | 2.0 | 0.00 | 0.00 | 0.00 | 83 | 1020.9 |
| 20260902010607 | 55 | 138 | 1.0 | 2.0 | 0.00 | 0.00 | 0.00 | 83 | 1020.9 |
| 20260902010107 | 55 | 187 | 1.0 | 2.0 | 0.00 | 0.00 | 0.00 | 84 | 1020.9 |
| 20260902005607 | 55 | 344 | 0.0 | 1.0 | 0.00 | 0.00 | 0.00 | 83 | 1020.9 |
| 20260902005108 | 55 | 197 | 0.0 | 1.0 | 0.00 | 0.00 | 0.00 | 83 | 1020.9 |
| 20260902004607 | 55 | 194 | 0.0 | 1.0 | 0.00 | 0.00 | 0.00 | 83 | 1020.9 |
| 20260902004108 | 55 | 295 | 0.0 | 2.0 | 0.00 | 0.00 | 0.00 | 82 | 1020.9 |
| 20260902003607 | 56 | 263 | 0.0 | 1.0 | 0.00 | 0.00 | 0.00 | 82 | 1020.9 |
| 20260902003110 | 56 | 239 | 0.0 | 2.0 | 0.00 | 0.00 | 0.00 | 82 | 1021.3 |
| 20260902002610 | 56 | 141 | 0.0 | 2.0 | 0.00 | 0.00 | 0.00 | 82 | 1020.9 |
| 20260902002110 | 56 | 160 | 0.0 | 1.0 | 0.00 | 0.00 | 0.00 | 82 | 1020.9 |
| 20260902001607 | 56 | 154 | 0.0 | 1.0 | 0.00 | 0.00 | 0.00 | 81 | 1020.9 |
| 20260902001107 | 56 | 354 | 0.0 | 2.0 | 0.00 | 0.00 | 0.00 | 81 | 1020.9 |
| 20260902000610 | 56 | 123 | 0.0 | 2.0 | 0.00 | 0.00 | 0.00 | 81 | 1020.9 |
| 20260902000107 | 56 | 78 | 1.0 | 2.0 | 0.00 | 0.00 | 0.00 | 81 | 1020.9 |
| 20260901235613 | 56 | 17 | 0.0 | 1.0 | 0.00 | 0.00 | 0.00 | 81 | 1020.9 |
| 20260901235113 | 57 | 86 | 0.0 | 1.0 | 0.00 | 0.00 | 0.00 | 81 | 1020.9 |
| 20260901234614 | 57 | 77 | 1.0 | 2.0 | 0.00 | 0.00 | 0.00 | 81 | 1020.9 |
| 20260901234107 | 57 | 157 | 0.0 | 1.0 | 0.00 | 0.00 | 0.00 | 81 | 1020.9 |
| 20260901233607 | 57 | 57 | 1.0 | 2.0 | 0.00 | 0.00 | 0.00 | 81 | 1020.9 |
| 20260901233110 | 57 | 124 | 0.0 | 1.0 | 0.00 | 0.00 | 0.00 | 80 | 1020.9 |
| 20260901232607 | 57 | 204 | 0.0 | 3.0 | 0.00 | 0.00 | 0.00 | 80 | 1020.9 |
| 20260901232107 | 57 | 78 | 2.0 | 3.0 | 0.00 | 0.00 | 0.00 | 80 | 1020.9 |
| 20260901231607 | 57 | 80 | 0.0 | 2.0 | 0.00 | 0.00 | 0.00 | 79 | 1020.9 |
| 20260901231108 | 57 | 169 | 1.0 | 3.0 | 0.00 | 0.00 | 0.00 | 79 | 1020.9 |
| 20260901230613 | 57 | 330 | 1.0 | 2.0 | 0.00 | 0.00 | 0.00 | 79 | 1020.9 |
| 20260901230110 | 57 | 21 | 0.0 | 1.0 | 0.00 | 0.00 | 0.00 | 80 | 1020.9 |
| 20260901225610 | 57 | 95 | 0.0 | 2.0 | 0.00 | 0.00 | 0.00 | 79 | 1020.9 |
| 20260901225108 | 57 | 87 | 0.0 | 2.0 | 0.00 | 0.00 | 0.00 | 79 | 1020.9 |
| 20260901224607 | 58 | 56 | 1.0 | 2.0 | 0.00 | 0.00 | 0.00 | 79 | 1020.9 |
| 20260901224116 | 58 | 95 | 0.0 | 2.0 | 0.00 | 0.00 | 0.00 | 79 | 1020.9 |
| 20260901223610 | 58 | 148 | 1.0 | 2.0 | 0.00 | 0.00 | 0.00 | 78 | 1020.9 |
| 20260901223110 | 58 | 162 | 1.0 | 3.0 | 0.00 | 0.00 | 0.00 | 78 | 1020.9 |
| 20260901222607 | 58 | 166 | 1.0 | 3.0 | 0.00 | 0.00 | 0.00 | 78 | 1020.9 |
| 20260901222107 | 58 | 71 | 2.0 | 3.0 | 0.00 | 0.00 | 0.00 | 78 | 1020.9 |
| 20260901221607 | 58 | 128 | 1.0 | 2.0 | 0.00 | 0.00 | 0.00 | 78 | 1020.9 |
| 20260901221107 | 58 | 60 | 0.0 | 2.0 | 0.00 | 0.00 | 0.00 | 77 | 1020.9 |
| 20260901220607 | 58 | 103 | 0.0 | 3.0 | 0.00 | 0.00 | 0.00 | 77 | 1020.9 |
| 20260901220113 | 59 | 94 | 1.0 | 3.0 | 0.00 | 0.00 | 0.00 | 77 | 1020.9 |
| 20260901215613 | 59 | 148 | 1.0 | 2.0 | 0.00 | 0.00 | 0.00 | 77 | 1020.9 |
| 20260901215113 | 59 | 101 | 0.0 | 2.0 | 0.00 | 0.00 | 0.00 | 76 | 1020.9 |
| 20260901214610 | 59 | 84 | 1.0 | 3.0 | 0.00 | 0.00 | 0.00 | 76 | 1020.9 |
| 20260901214108 | 59 | 93 | 1.0 | 3.0 | 0.00 | 0.00 | 0.00 | 76 | 1020.9 |
| 20260901213607 | 59 | 93 | 1.0 | 3.0 | 0.00 | 0.00 | 0.00 | 76 | 1020.9 |
| 20260901213110 | 59 | 93 | 1.0 | 3.0 | 0.00 | 0.00 | 0.00 | 76 | 1020.9 |
| 20260901212607 | 60 | 88 | 1.0 | 3.0 | 0.00 | 0.00 | 0.00 | 75 | 1020.9 |
| 20260901212107 | 60 | 173 | 0.0 | 1.0 | 0.00 | 0.00 | 0.00 | 75 | 1020.9 |
| 20260901211613 | 60 | 193 | 1.0 | 1.0 | 0.00 | 0.01 | 0.00 | 75 | 1020.9 |
| 20260901211107 | 60 | 214 | 0.0 | 1.0 | 0.00 | 0.08 | 0.00 | 74 | 1020.9 |
| 20260901210613 | 60 | 207 | 0.0 | 2.0 | 0.00 | 0.08 | 0.00 | 73 | 1020.5 |
| 20260901210107 | 61 | 281 | 1.0 | 2.0 | 0.00 | 0.08 | 0.00 | 73 | 1020.9 |
| 20260901205613 | 61 | 222 | 0.0 | 2.0 | 0.00 | 0.08 | 0.00 | 73 | 1020.5 |
| 20260901205110 | 61 | 204 | 1.0 | 1.0 | 0.00 | 0.08 | 0.00 | 72 | 1020.5 |
| 20260901204607 | 61 | 210 | 0.0 | 1.0 | 0.00 | 0.08 | 0.00 | 72 | 1020.5 |
| 20260901204110 | 61 | 199 | 0.0 | 1.0 | 0.00 | 0.08 | 0.00 | 71 | 1020.5 |
| 20260901203607 | 62 | 199 | 0.0 | 1.0 | 0.00 | 0.08 | 0.00 | 71 | 1020.5 |
| 20260901203108 | 62 | 245 | 0.0 | 1.0 | 0.00 | 0.08 | 0.00 | 71 | 1020.5 |
| 20260901202607 | 62 | 233 | 0.0 | 1.0 | 0.00 | 0.08 | 0.00 | 70 | 1020.5 |
| 20260901202107 | 62 | 230 | 0.0 | 1.0 | 0.00 | 0.08 | 0.00 | 70 | 1020.5 |
| 20260901201610 | 62 | 143 | 0.0 | 2.0 | 0.00 | 0.08 | 0.00 | 69 | 1020.5 |
| 20260901201108 | 63 | 110 | 1.0 | 2.0 | 0.00 | 0.08 | 0.00 | 69 | 1020.5 |
| 20260901200613 | 63 | 150 | 1.0 | 1.0 | 0.00 | 0.08 | 0.00 | 68 | 1020.5 |
| 20260901200107 | 63 | 210 | 0.0 | 1.0 | 0.00 | 0.08 | 0.00 | 67 | 1020.5 |
| 20260901195616 | 63 | 208 | 0.0 | 1.0 | 0.00 | 0.08 | 0.00 | 67 | 1020.5 |
| 20260901195110 | 63 | 208 | 0.0 | 1.0 | 0.00 | 0.08 | 0.00 | 66 | 1020.5 |
| 20260901194607 | 64 | 261 | 0.0 | 1.0 | 0.00 | 0.08 | 0.00 | 66 | 1020.5 |
| 20260901194110 | 64 | 251 | 0.0 | 1.0 | 0.00 | 0.08 | 0.00 | 65 | 1020.5 |
| 20260901193607 | 64 | 236 | 0.0 | 1.0 | 0.00 | 0.08 | 0.00 | 64 | 1020.5 |
| 20260901193110 | 64 | 242 | 0.0 | 1.0 | 0.00 | 0.08 | 0.00 | 64 | 1020.5 |
| 20260901192610 | 64 | 237 | 0.0 | 1.0 | 0.00 | 0.08 | 0.00 | 63 | 1020.5 |
| 20260901192107 | 65 | 253 | 1.0 | 2.0 | 0.00 | 0.08 | 0.00 | 63 | 1020.5 |
| 20260901191607 | 65 | 175 | 1.0 | 2.0 | 0.00 | 0.08 | 0.00 | 62 | 1020.5 |
| 20260901191107 | 65 | 252 | 0.0 | 1.0 | 0.00 | 0.08 | 0.00 | 62 | 1020.5 |
| 20260901190613 | 65 | 221 | 0.0 | 1.0 | 0.00 | 0.08 | 0.00 | 61 | 1020.2 |
| 20260901190110 | 66 | 250 | 0.0 | 1.0 | 0.00 | 0.08 | 0.00 | 60 | 1020.2 |
| 20260901185610 | 66 | 208 | 0.0 | 1.0 | 0.00 | 0.08 | 0.00 | 59 | 1020.2 |
| 20260901185107 | 67 | 293 | 0.0 | 1.0 | 0.00 | 0.08 | 0.00 | 58 | 1020.2 |
| 20260901184613 | 67 | 333 | 1.0 | 2.0 | 0.00 | 0.08 | 0.00 | 57 | 1020.2 |
| 20260901184110 | 67 | 293 | 0.0 | 2.0 | 0.00 | 0.08 | 0.00 | 56 | 1020.2 |
| 20260901183616 | 68 | 208 | 0.0 | 2.0 | 0.00 | 0.08 | 0.00 | 55 | 1020.2 |
| 20260901183107 | 68 | 258 | 0.0 | 1.0 | 0.00 | 0.08 | 0.00 | 54 | 1019.8 |
| 20260901182610 | 69 | 239 | 0.0 | 2.0 | 0.00 | 0.08 | 0.00 | 53 | 1019.8 |
| 20260901182113 | 69 | 175 | 0.0 | 1.0 | 0.00 | 0.08 | 0.00 | 52 | 1019.8 |
| 20260901181613 | 69 | 214 | 0.0 | 1.0 | 0.00 | 0.08 | 0.00 | 51 | 1019.8 |
| 20260901181110 | 69 | 219 | 0.0 | 3.0 | 0.00 | 0.08 | 0.00 | 51 | 1019.8 |
| 20260901180607 | 70 | 179 | 1.0 | 3.0 | 0.00 | 0.08 | 0.00 | 50 | 1019.8 |
| 20260901180107 | 70 | 165 | 0.0 | 1.0 | 0.00 | 0.08 | 0.00 | 50 | 1019.5 |
| 20260901175610 | 70 | 246 | 0.0 | 2.0 | 0.00 | 0.08 | 0.00 | 50 | 1019.5 |
| 20260901175110 | 71 | 236 | 0.0 | 2.0 | 0.00 | 0.08 | 0.00 | 49 | 1019.5 |
| 20260901174610 | 71 | 271 | 0.0 | 1.0 | 0.00 | 0.08 | 0.00 | 48 | 1019.5 |
| 20260901174107 | 72 | 251 | 0.0 | 2.0 | 0.00 | 0.08 | 0.00 | 47 | 1019.5 |
| 20260901173608 | 72 | 254 | 0.0 | 3.0 | 0.00 | 0.08 | 0.00 | 47 | 1019.5 |
| 20260901173107 | 72 | 230 | 1.0 | 4.0 | 0.00 | 0.08 | 0.00 | 47 | 1019.5 |
| 20260901172607 | 72 | 223 | 1.0 | 4.0 | 0.00 | 0.08 | 0.00 | 45 | 1019.5 |
| 20260901172110 | 72 | 235 | 1.0 | 4.0 | 0.00 | 0.08 | 0.00 | 45 | 1019.5 |
| 20260901171607 | 73 | 221 | 1.0 | 5.0 | 0.00 | 0.08 | 0.00 | 45 | 1019.5 |
| 20260901171107 | 73 | 265 | 1.0 | 3.0 | 0.00 | 0.08 | 0.00 | 44 | 1019.5 |
| 20260901170614 | 73 | 241 | 1.0 | 5.0 | 0.00 | 0.08 | 0.00 | 44 | 1019.5 |
| 20260901170107 | 73 | 203 | 0.0 | 3.0 | 0.00 | 0.08 | 0.00 | 45 | 1019.5 |
| 20260901165616 | 73 | 232 | 1.0 | 4.0 | 0.00 | 0.08 | 0.00 | 44 | 1019.5 |
| 20260901165110 | 73 | 199 | 1.0 | 5.0 | 0.00 | 0.08 | 0.00 | 43 | 1019.5 |
| 20260901164607 | 74 | 158 | 2.0 | 4.0 | 0.00 | 0.08 | 0.00 | 42 | 1019.8 |
| 20260901164113 | 74 | 232 | 2.0 | 4.0 | 0.00 | 0.08 | 0.00 | 43 | 1019.8 |
| 20260901163610 | 74 | 247 | 2.0 | 5.0 | 0.00 | 0.08 | 0.00 | 42 | 1019.8 |
| 20260901163110 | 74 | 182 | 2.0 | 6.0 | 0.00 | 0.08 | 0.00 | 41 | 1019.8 |
| 20260901162610 | 74 | 220 | 1.0 | 4.0 | 0.00 | 0.08 | 0.00 | 41 | 1019.8 |
| 20260901162110 | 74 | 219 | 1.0 | 7.0 | 0.00 | 0.08 | 0.00 | 40 | 1019.8 |
| 20260901161607 | 75 | 238 | 2.0 | 7.0 | 0.00 | 0.08 | 0.00 | 39 | 1019.8 |
| 20260901161116 | 75 | 224 | 0.0 | 6.0 | 0.00 | 0.08 | 0.00 | 40 | 1019.8 |
| 20260901160610 | 75 | 194 | 1.0 | 7.0 | 0.00 | 0.08 | 0.00 | 39 | 1019.8 |
| 20260901160111 | 76 | 176 | 2.0 | 6.0 | 0.00 | 0.08 | 0.00 | 38 | 1019.8 |
| 20260901155610 | 76 | 274 | 1.0 | 7.0 | 0.00 | 0.08 | 0.00 | 38 | 1019.8 |
| 20260901155108 | 76 | 220 | 1.0 | 8.0 | 0.00 | 0.08 | 0.00 | 39 | 1019.8 |
| 20260901154610 | 76 | 214 | 2.0 | 11.0 | 0.00 | 0.08 | 0.00 | 39 | 1019.8 |
| 20260901154108 | 76 | 248 | 3.0 | 7.0 | 0.00 | 0.08 | 0.00 | 37 | 1019.8 |
| 20260901153613 | 76 | 252 | 1.0 | 5.0 | 0.00 | 0.08 | 0.00 | 39 | 1019.8 |
| 20260901153111 | 76 | 263 | 1.0 | 6.0 | 0.00 | 0.08 | 0.00 | 39 | 1019.8 |
| 20260901152608 | 77 | 223 | 1.0 | 7.0 | 0.00 | 0.08 | 0.00 | 38 | 1019.8 |
| 20260901152113 | 77 | 226 | 2.0 | 5.0 | 0.00 | 0.08 | 0.00 | 38 | 1019.8 |
| 20260901151610 | 77 | 188 | 2.0 | 4.0 | 0.00 | 0.08 | 0.00 | 38 | 1019.8 |
| 20260901151107 | 76 | 246 | 0.0 | 7.0 | 0.00 | 0.08 | 0.00 | 41 | 1019.8 |
| 20260901150616 | 75 | 265 | 3.0 | 8.0 | 0.00 | 0.08 | 0.00 | 39 | 1019.8 |
| 20260901150110 | 76 | 254 | 2.0 | 8.0 | 0.00 | 0.08 | 0.00 | 38 | 1019.8 |
| 20260901145607 | 77 | 198 | 1.0 | 8.0 | 0.00 | 0.08 | 0.00 | 38 | 1019.8 |
| 20260901145110 | 78 | 216 | 2.0 | 7.0 | 0.00 | 0.08 | 0.00 | 37 | 1019.8 |
| 20260901144610 | 77 | 216 | 1.0 | 7.0 | 0.00 | 0.08 | 0.00 | 38 | 1019.8 |
| 20260901144111 | 75 | 211 | 2.0 | 9.0 | 0.00 | 0.08 | 0.00 | 39 | 1019.8 |
| 20260901143610 | 75 | 284 | 2.0 | 10.0 | 0.00 | 0.08 | 0.00 | 39 | 1019.8 |
| 20260901143108 | 76 | 227 | 4.0 | 10.0 | 0.00 | 0.08 | 0.00 | 35 | 1019.8 |
| 20260901142607 | 78 | 262 | 2.0 | 7.0 | 0.00 | 0.08 | 0.00 | 35 | 1020.2 |
| 20260901142108 | 78 | 170 | 1.0 | 5.0 | 0.00 | 0.08 | 0.00 | 38 | 1020.2 |
| 20260901141608 | 77 | 252 | 2.0 | 6.0 | 0.00 | 0.08 | 0.00 | 40 | 1020.2 |
| 20260901141110 | 75 | 274 | 3.0 | 7.0 | 0.00 | 0.08 | 0.00 | 41 | 1020.2 |
| 20260901140607 | 75 | 223 | 2.0 | 7.0 | 0.00 | 0.08 | 0.00 | 41 | 1020.2 |
| 20260901140114 | 75 | 315 | 3.0 | 7.0 | 0.00 | 0.08 | 0.00 | 40 | 1020.2 |
| 20260901135613 | 76 | 302 | 3.0 | 7.0 | 0.00 | 0.08 | 0.00 | 40 | 1020.2 |
| 20260901135113 | 76 | 293 | 2.0 | 8.0 | 0.00 | 0.08 | 0.00 | 40 | 1020.2 |
| 20260901134610 | 75 | 263 | 2.0 | 10.0 | 0.00 | 0.08 | 0.00 | 39 | 1020.2 |
| 20260901134107 | 75 | 270 | 3.0 | 9.0 | 0.00 | 0.08 | 0.00 | 39 | 1020.2 |
| 20260901133616 | 75 | 234 | 3.0 | 8.0 | 0.00 | 0.08 | 0.00 | 40 | 1020.2 |
| 20260901133108 | 75 | 249 | 4.0 | 7.0 | 0.00 | 0.08 | 0.00 | 41 | 1020.2 |
| 20260901132617 | 75 | 265 | 2.0 | 9.0 | 0.00 | 0.08 | 0.00 | 40 | 1020.5 |
| 20260901132110 | 75 | 223 | 2.0 | 6.0 | 0.00 | 0.08 | 0.00 | 41 | 1020.5 |
| 20260901131607 | 74 | 222 | 3.0 | 6.0 | 0.00 | 0.08 | 0.00 | 42 | 1020.5 |
| 20260901131107 | 75 | 235 | 2.0 | 7.0 | 0.00 | 0.08 | 0.00 | 41 | 1020.5 |
| 20260901130607 | 76 | 233 | 1.0 | 7.0 | 0.00 | 0.08 | 0.00 | 40 | 1020.5 |
| 20260901130113 | 74 | 226 | 1.0 | 9.0 | 0.00 | 0.08 | 0.00 | 44 | 1020.5 |
| 20260901125607 | 73 | 247 | 3.0 | 9.0 | 0.00 | 0.08 | 0.00 | 44 | 1020.5 |
| 20260901125107 | 73 | 271 | 2.0 | 8.0 | 0.00 | 0.08 | 0.00 | 44 | 1020.5 |
| 20260901124607 | 74 | 224 | 3.0 | 8.0 | 0.00 | 0.08 | 0.00 | 43 | 1020.5 |
| 20260901124108 | 73 | 310 | 3.0 | 8.0 | 0.00 | 0.08 | 0.00 | 45 | 1020.5 |
| 20260901123607 | 73 | 278 | 3.0 | 9.0 | 0.00 | 0.08 | 0.00 | 45 | 1020.5 |
| 20260901123113 | 74 | 302 | 4.0 | 7.0 | 0.00 | 0.08 | 0.00 | 44 | 1020.9 |
| 20260901122607 | 75 | 212 | 1.0 | 9.0 | 0.00 | 0.08 | 0.00 | 42 | 1020.5 |
| 20260901122107 | 74 | 240 | 2.0 | 12.0 | 0.00 | 0.08 | 0.00 | 42 | 1020.5 |
| 20260901121610 | 75 | 238 | 3.0 | 8.0 | 0.00 | 0.08 | 0.00 | 39 | 1020.5 |
| 20260901121111 | 75 | 223 | 2.0 | 9.0 | 0.00 | 0.08 | 0.00 | 41 | 1020.5 |
| 20260901120608 | 74 | 256 | 3.0 | 8.0 | 0.00 | 0.08 | 0.00 | 43 | 1020.5 |
| 20260901120111 | 74 | 267 | 3.0 | 8.0 | 0.00 | 0.08 | 0.00 | 44 | 1020.5 |
| 20260901115611 | 74 | 228 | 2.0 | 6.0 | 0.00 | 0.08 | 0.00 | 45 | 1020.5 |
| 20260901115110 | 73 | 215 | 2.0 | 9.0 | 0.00 | 0.08 | 0.00 | 47 | 1020.5 |
| 20260901114611 | 71 | 279 | 3.0 | 8.0 | 0.00 | 0.08 | 0.00 | 48 | 1020.5 |
| 20260901114107 | 71 | 256 | 4.0 | 8.0 | 0.00 | 0.08 | 0.00 | 47 | 1020.5 |
| 20260901113610 | 71 | 299 | 3.0 | 6.0 | 0.00 | 0.08 | 0.00 | 48 | 1020.9 |
| 20260901113110 | 71 | 314 | 2.0 | 9.0 | 0.00 | 0.08 | 0.00 | 47 | 1020.9 |
| 20260901112607 | 73 | 281 | 2.0 | 7.0 | 0.00 | 0.08 | 0.00 | 46 | 1020.5 |
| 20260901112107 | 73 | 221 | 2.0 | 10.0 | 0.00 | 0.08 | 0.00 | 44 | 1020.5 |
| 20260901111613 | 72 | 229 | 1.0 | 11.0 | 0.00 | 0.08 | 0.00 | 46 | 1020.5 |
| 20260901111110 | 71 | 271 | 2.0 | 11.0 | 0.00 | 0.08 | 0.00 | 48 | 1020.5 |
| 20260901110610 | 72 | 235 | 5.0 | 10.0 | 0.00 | 0.08 | 0.00 | 47 | 1020.9 |
| 20260901110110 | 71 | 269 | 3.0 | 10.0 | 0.00 | 0.08 | 0.00 | 49 | 1020.9 |
| 20260901105607 | 70 | 299 | 2.0 | 10.0 | 0.00 | 0.08 | 0.00 | 48 | 1020.5 |
| 20260901105110 | 72 | 273 | 4.0 | 9.0 | 0.00 | 0.08 | 0.00 | 47 | 1020.9 |
| 20260901104607 | 72 | 246 | 4.0 | 9.0 | 0.00 | 0.08 | 0.00 | 47 | 1020.5 |
| 20260901104110 | 72 | 270 | 2.0 | 8.0 | 0.00 | 0.08 | 0.00 | 47 | 1020.5 |
| 20260901103607 | 73 | 257 | 3.0 | 7.0 | 0.00 | 0.08 | 0.00 | 46 | 1020.5 |
| 20260901103113 | 72 | 229 | 3.0 | 10.0 | 0.00 | 0.08 | 0.00 | 47 | 1020.5 |
| 20260901102607 | 71 | 280 | 1.0 | 6.0 | 0.00 | 0.08 | 0.00 | 50 | 1020.5 |
| 20260901102113 | 71 | 268 | 1.0 | 9.0 | 0.00 | 0.08 | 0.00 | 51 | 1020.5 |